Regional Weather Roundup
Issued by NWS Bismarck, ND

Home | Current Version | Previous Version | Text Only | Print | Product List | Glossary On
Versions: 1 2 3 4 5 6 7 8 9 10 11 12 13 14 15 16 17 18 19 20 21 22 23 24 25 26 27 28 29 30 31 32 33 34 35 36 37 38 39 40 41 42 43 44 45 46 47 48 49 50
000
ASUS43 KBIS 011910
RWRBIS

NWR BROADCAST TEXT
NATIONAL WEATHER SERVICE BISMARCK ND
200 PM CDT SAT AUG 01 2015

NOTE: "FAIR" INDICATES FEW OR NO CLOUDS BELOW 12,000 FEET WITH NO
SIGNIFICANT WEATHER AND/OR OBSTRUCTIONS TO VISIBILITY.


CITY           SKY/WX    TMP DP  RH WIND       PRES   REMARKS
WILLISTON      SUNNY     89  54  30 SW6       29.85F
MINOT          SUNNY     87  48  25 SE7       29.84F
MINOT AFB      SUNNY     89  52  28 SW8       29.83F
BISMARCK       SUNNY     86  59  39 N8        29.84F
DICKINSON      SUNNY     89  47  23 VRB7      29.90F
GARRISON         N/A     82  57  42 CALM      29.86F
HETTINGER ARPT SUNNY     91  42  18 NW14      29.94F
JAMESTOWN      SUNNY     84  61  45 S10       29.85F
CROSBY         FAIR      90  54  29 SW9       29.83F
HARVEY         FAIR      86  54  32 SE5       29.84F
HAZEN            N/A     86  52  30 N6        29.86F
OAKES            N/A     90  66  45 S12G18    29.83F HX  92
STANLEY        FAIR      84  55  37 SW6       29.88F
$$

CITY           SKY/WX    TMP DP  RH WIND       PRES   REMARKS
GRAND FORKS    MOSUNNY   84  54  35 SW10      29.82F
GRAND FORKS AF SUNNY     83  57  41 VRB5      29.83F
DEVILS LAKE    SUNNY     82  55  39 SW9       29.83F
FARGO          MOSUNNY   84  58  40 SE10      29.84F
CAVALIER       FAIR      81  55  41 SW6       29.82F
GRAFTON        FAIR      82  55  39 SW8G14    29.83F
GWINNER        FAIR      82  64  54 SE13      29.85F
LANGDON        FAIR      84  54  34 SW10      29.85F
ROLLA            N/A     79  57  47 W5        29.87F
WALHALLA       FAIR      81  55  41 MISG      29.82F
$$

CITY           SKY/WX    TMP DP  RH WIND       PRES   REMARKS
ABERDEEN       SUNNY     86  68  54 S16G22    29.84F
MOBRIDGE       SUNNY     93  58  30 W9        29.81F HX  92
BUFFALO          N/A     93  34  12 NW14G23   29.90F
RAPID CITY     SUNNY     88  57  34 CALM      30.01F
GLASGOW        SUNNY     92  45  19 NW10      29.84F
SIDNEY         SUNNY    N/A N/A N/A SE9       29.84F
WOLF POINT     SUNNY     97  44  16 SW13      29.81F HX  93
GLENDIVE       SUNNY     91  48  22 S14G20    29.89F
MILES CITY     SUNNY     96  40  14 SW13      29.91F HX  92
BAKER          SUNNY     94  37  13 W9        29.95F
$$

CITY           SKY/WX    TMP DP  RH WIND       PRES   REMARKS
BILLINGS       MOSUNNY   93  35  13 SW10G20   30.02F
GREAT FALLS    SUNNY     93  28  10 W17G23    29.99F
REGINA         MOSUNNY   82  57  42 E8        29.81F
ESTEVAN        MOSUNNY   88  52  29 SW9       29.82F
$$




USA.gov is the U.S. government's official web portal to all federal, state and local government web resources and services.